User: anonymous
Location: Luz Observatory
(34.5000°N, 117.2833°W)
Time: 00:23:28
(UTC-07:00)
Language:

Okean 3 Rocket - Orbit

View from above orbital plane
View from above orbital plane
View from above satellite
View from above satellite

Ground track
Ground track

The orbit data is extracted from the following two-line orbital elements,

1 21398U 91039B   14210.91221522  .00000161  00000-0  18531-4 0  8031
2 21398 082.5247 126.4099 0022277 038.2056 007.7697 14.79180154248176
Epoch (UTC): 29 July 2014 21:53:35
Eccentricity: 0.0022277
inclination: 82.5247°
perigee height: 616 km
apogee height: 647 km
right ascension of ascending node: 126.4099°
argument of perigee: 38.2056°
revolutions per day: 14.79180154
mean anomaly at epoch: 7.7697°
orbit number at epoch: 24817

The dashed part of the orbit path shows where the satellite is in the earth's shadow,  

DLR